"Pseudo-MPEC" for P11CrrK

Created 2022 Dec 22 22:22:17 UT using Find_Orb

Click here for an explanation of pseudo-MPECs

 
 Astrometry: 
     P11CrrK* C2022 12 029b!+pt7!'Q2eG8frfNc8qCFgAstrometry=xmvFD5bEA2@9#AtU-F51
     P11CrrK  C2022 12 02`yNeredacted;UkW5XmRV:NV^d^_+$x.yM=`gt_mHJ:\(O:O[pD0F51
     P11CrrK  C2022 12 02L\clickND@g)x?8Ql/7Y)vMR!here)F]2uw;VG9@MvforHKp5UoUF51
     P11CrrK  C2022 12 02GFGV^[`4.l578L#g#sCJfQfW3f\13(2C@explanationm)/UuDG3F51

Station data:
(F51) Pan-STARRS 1, Haleakala  (N20.707234 W156.255910)  US/Hawaii.
   Observers J. Bulger, T. Lowe, A. Schultz, M. Willman. Measurers K.
   Chambers, S. Chastel, T. de Boer, L. Denneau, J. Fairlamb, H. Flewelling,
   M. Huber, C.-C. Lin, E. Magnier, Y. Ramanjooloo, R. Wainscoat, R. Weryk.
   1.8-m Ritchey-Chrétien + CCD.

Orbital elements:  P11CrrK
   Perihelion 2022 Oct 12.10999 +/- 70.8 TT =  2:38:23 (JD 2459864.60999)
Epoch 2022 Dec  3.0 TT = JDT 2459916.5   Earth MOID: 0.3590   Ma: 0.0452
M  19.42373064 +/- 56               (J2000 ecliptic)             AutoNEOCP
n   0.37432507 +/- 0.41             Peri.   53.49219 +/- 100
a   1.90679249 +/- 1.39             Node   357.02482 +/- 43
e   0.3309648 +/- 0.255             Incl.   20.42848 +/- 19
P   2.63/961.71d           H 19.71  G  0.15   U 12.1  SR
q 1.27571113 +/- 0.581    Q 2.53787384 +/- 41.5
From 4 observations 2022 Dec. 2 (58.8 min); mean residual 0".03
Residuals in arcseconds: 
221202 F51  .02+  .00     221202 F51  .07-  .00     
221202 F51  .00   .00     221202 F51  .05+  .00     

Ephemerides (geocentric):
Date (UTC) HH   RA             Dec           delta  r     elong  mag " sig PA
---- --------  ------------   ------------  ------ ------ -----  --- --------
2022 12 22 22  10 54 01.423   +59 19 36.84  .64807 1.4146 118.8 21.1  52d  55
2022 12 22 23  10 54 00.393   +59 19 47.86  .64804 1.4147 118.8 21.1  52d  55
2022 12 23 00  10 53 59.349   +59 19 58.88  .64800 1.4149 118.8 21.1  52d  55
2022 12 23 01  10 53 58.293   +59 20 09.90  .64797 1.4150 118.8 21.1  52d  55
2022 12 23 02  10 53 57.223   +59 20 20.91  .64793 1.4152 118.9 21.1  52d  55
2022 12 23 03  10 53 56.139   +59 20 31.92  .64789 1.4153 118.9 21.1  52d  55
2022 12 23 04  10 53 55.043   +59 20 42.92  .64786 1.4155 118.9 21.1  52d  55
2022 12 23 05  10 53 53.933   +59 20 53.93  .64782 1.4156 118.9 21.1  52d  55
2022 12 23 06  10 53 52.810   +59 21 04.93  .64779 1.4158 119.0 21.1  52d  55
2022 12 23 07  10 53 51.673   +59 21 15.92  .64775 1.4159 119.0 21.1  52d  55
2022 12 23 08  10 53 50.523   +59 21 26.92  .64772 1.4160 119.0 21.1  52d  55
2022 12 23 09  10 53 49.360   +59 21 37.90  .64768 1.4162 119.0 21.1  52d  55
2022 12 23 10  10 53 48.184   +59 21 48.89  .64765 1.4163 119.1 21.1  52d  55
2022 12 23 11  10 53 46.994   +59 21 59.87  .64761 1.4165 119.1 21.1  52d  55
2022 12 23 12  10 53 45.791   +59 22 10.85  .64758 1.4166 119.1 21.1  52d  55
2022 12 23 13  10 53 44.575   +59 22 21.82  .64754 1.4168 119.1 21.1  52d  55
2022 12 23 14  10 53 43.345   +59 22 32.79  .64751 1.4169 119.2 21.1  52d  55
2022 12 23 15  10 53 42.102   +59 22 43.75  .64747 1.4171 119.2 21.1  52d  55
2022 12 23 16  10 53 40.846   +59 22 54.71  .64744 1.4172 119.2 21.1  52d  55
2022 12 23 17  10 53 39.577   +59 23 05.67  .64740 1.4174 119.2 21.1  52d  55
2022 12 23 18  10 53 38.294   +59 23 16.62  .64737 1.4175 119.3 21.1  52d  55
2022 12 23 19  10 53 36.998   +59 23 27.56  .64734 1.4177 119.3 21.1  52d  55
2022 12 23 20  10 53 35.688   +59 23 38.50  .64730 1.4178 119.3 21.1  52d  55
2022 12 23 21  10 53 34.365   +59 23 49.44  .64727 1.4179 119.3 21.1  52d  55
2022 12 23 22  10 53 33.029   +59 24 00.37  .64723 1.4181 119.4 21.1  52d  55
2022 12 23 23  10 53 31.680   +59 24 11.29  .64720 1.4182 119.4 21.1  52d  55
2022 12 24 00  10 53 30.317   +59 24 22.21  .64716 1.4184 119.4 21.1  52d  55
2022 12 24 01  10 53 28.940   +59 24 33.13  .64713 1.4185 119.4 21.1  52d  55
2022 12 24 02  10 53 27.551   +59 24 44.04  .64710 1.4187 119.5 21.1  52d  55
2022 12 24 03  10 53 26.148   +59 24 54.94  .64706 1.4188 119.5 21.1  52d  55
2022 12 24 04  10 53 24.732   +59 25 05.84  .64703 1.4190 119.5 21.1  52d  55
2022 12 24 05  10 53 23.302   +59 25 16.73  .64699 1.4191 119.5 21.1  52d  55
2022 12 24 06  10 53 21.859   +59 25 27.61  .64696 1.4193 119.6 21.1  52d  55
2022 12 24 07  10 53 20.403   +59 25 38.49  .64693 1.4194 119.6 21.1  52d  55
2022 12 24 08  10 53 18.933   +59 25 49.36  .64689 1.4196 119.6 21.1  52d  55
2022 12 24 09  10 53 17.450   +59 26 00.23  .64686 1.4197 119.7 21.1  52d  55
2022 12 24 10  10 53 15.954   +59 26 11.09  .64682 1.4198 119.7 21.1  52d  55
2022 12 24 11  10 53 14.444   +59 26 21.94  .64679 1.4200 119.7 21.1  52d  55
2022 12 24 12  10 53 12.921   +59 26 32.79  .64676 1.4201 119.7 21.1  52d  55
2022 12 24 13  10 53 11.384   +59 26 43.63  .64672 1.4203 119.8 21.1  52d  55
2022 12 24 14  10 53 09.834   +59 26 54.46  .64669 1.4204 119.8 21.1  52d  55
2022 12 24 15  10 53 08.271   +59 27 05.29  .64666 1.4206 119.8 21.1  52d  55
2022 12 24 16  10 53 06.694   +59 27 16.11  .64662 1.4207 119.8 21.1  52d  55
2022 12 24 17  10 53 05.104   +59 27 26.92  .64659 1.4209 119.9 21.1  52d  55
2022 12 24 18  10 53 03.500   +59 27 37.72  .64656 1.4210 119.9 21.1  52d  55
2022 12 24 19  10 53 01.884   +59 27 48.52  .64653 1.4212 119.9 21.1  52d  55
2022 12 24 20  10 53 00.253   +59 27 59.31  .64649 1.4213 119.9 21.1  52d  55
2022 12 24 21  10 52 58.610   +59 28 10.09  .64646 1.4215 120.0 21.1  52d  55